Flint, MI

9:04 PM EST on January 19, 2018 (GMT -0500)
Bishop International

Weather History for KFNT - January, 2013

Change the Weather History Date:

Friday, January 4, 2013

  Actual Average Record
Temperature  
Mean Temperature 28 °F 23 °F  
Max Temperature 33 °F 30 °F 61 °F (1997)
Min Temperature 23 °F 16 °F -16 °F (1981)
Degree Days  
Heating Degree Days 37 42  
Month to date heating degree days 167 167  
Since 1 July heating degree days 2527 2812  
Cooling Degree Days 0 0  
Month to date cooling degree days 0 0  
Year to date cooling degree days 0 0  
Moisture  
Dew Point 20 °F    
Average Humidity 68    
Maximum Humidity 75    
Minimum Humidity 61    
Precipitation  
Precipitation 0.00 in 0.06 in 0.79 in (1993)
Month to date precipitation T 0.23  
Year to date precipitation T 0.23  
Snow  
Snow 0.00 in 0.40 in 3.50 in (1972)
Month to date snowfall 0.1 1.7  
Since 1 July snowfall 11.2 16.4  
Snow Depth 3.00 in    
Sea Level Pressure  
Sea Level Pressure 30.07 in    
Wind  
Wind Speed 13 mph (WSW)    
Max Wind Speed 23 mph    
Max Gust Speed 31 mph    
Visibility 10 miles    
Events      
T = Trace of Precipitation, MM = Missing Value Source: NWS Daily Summary

Daily Weather History Graph

Daily Weather History Graph

Search for Another Location

Airport or City:

Trip Planner

Search our weather history database for the weather conditions in past years. The results will help you decide how hot, cold, wet, or windy it might be!

Date:

Astronomy

Jan. 04, 2013 Rise Set
Actual Time 8:06 AM EST 5:14 PM EST
Civil Twilight 7:34 AM EST 5:46 PM EST
Nautical Twilight 6:58 AM EST 6:21 PM EST
Astronomical Twilight 6:24 AM EST 6:56 PM EST
Moon No Moon Rise 11:36 AM EST (1/4)
Length of Visible Light 10h 12m
Length of Day
9h 07m
Waning Gibbous, 55% of the Moon is Illuminated
Jan 4
Waning Gibbous
Jan 4
Last Quarter
Jan 11
New
Jan 18
First Quarter
Jan 26
Full

Hourly Weather History & Observations

Time (EST) Temp. Windchill Dew Point Humidity Pressure Visibility Wind Dir Wind Speed Gust Speed Precip Events Conditions
12:53 AM 28.9 °F 18.2 °F 21.0 °F 72% 30.12 in 9.0 mi West 13.8 mph - N/A   Overcast
1:53 AM 28.9 °F 17.7 °F 21.0 °F 72% 30.10 in 9.0 mi WSW 15.0 mph - N/A   Overcast
2:53 AM 28.9 °F 16.9 °F 19.9 °F 69% 30.10 in 10.0 mi West 17.3 mph 24.2 mph N/A   Overcast
3:53 AM 28.9 °F 16.1 °F 19.9 °F 69% 30.08 in 10.0 mi WSW 19.6 mph 29.9 mph N/A   Overcast
4:53 AM 28.9 °F 17.3 °F 19.0 °F 67% 30.07 in 10.0 mi WSW 16.1 mph 27.6 mph N/A   Overcast
5:31 AM 28.4 °F 18.5 °F 19.4 °F 69% 30.03 in 10.0 mi WSW 11.5 mph 26.5 mph N/A   Scattered Clouds
5:53 AM 27.0 °F 15.6 °F 19.0 °F 72% 30.06 in 10.0 mi WSW 13.8 mph 21.9 mph N/A   Partly Cloudy
6:33 AM 26.6 °F 14.7 °F 19.4 °F 74% 30.03 in 10.0 mi WSW 15.0 mph - N/A   Mostly Cloudy
6:53 AM 27.0 °F 15.6 °F 19.0 °F 72% 30.06 in 10.0 mi WSW 13.8 mph - N/A   Overcast
7:14 AM 26.6 °F 13.8 °F 19.4 °F 74% 30.03 in 10.0 mi WSW 17.3 mph 21.9 mph N/A   Scattered Clouds
7:53 AM 26.1 °F 13.6 °F 18.0 °F 71% 30.06 in 10.0 mi WSW 16.1 mph 21.9 mph N/A   Clear
8:53 AM 26.1 °F 14.5 °F 18.0 °F 71% 30.06 in 10.0 mi WSW 13.8 mph 20.7 mph N/A   Clear
9:43 AM 26.6 °F 12.4 °F 17.6 °F 69% 30.03 in 10.0 mi WSW 21.9 mph 31.1 mph N/A   Mostly Cloudy
9:53 AM 27.0 °F 15.2 °F 18.0 °F 69% 30.07 in 10.0 mi WSW 15.0 mph 25.3 mph N/A   Mostly Cloudy
10:53 AM 28.0 °F 16.5 °F 19.0 °F 69% 30.08 in 10.0 mi WSW 15.0 mph 26.5 mph N/A   Overcast
11:53 AM 28.0 °F 17.5 °F 19.9 °F 72% 30.05 in 10.0 mi WSW 12.7 mph - N/A   Scattered Clouds
12:53 PM 30.0 °F 18.7 °F 19.9 °F 66% 30.01 in 10.0 mi SW 16.1 mph 24.2 mph N/A   Clear
1:53 PM 32.0 °F 21.2 °F 21.0 °F 64% 29.99 in 10.0 mi WSW 16.1 mph 23.0 mph N/A   Clear
2:53 PM 30.9 °F 20.7 °F 19.9 °F 64% 30.00 in 10.0 mi SW 13.8 mph 19.6 mph N/A   Clear
3:53 PM 33.1 °F 23.4 °F 21.0 °F 61% 30.02 in 10.0 mi WSW 13.8 mph 25.3 mph N/A   Clear
4:53 PM 30.0 °F 22.4 °F 19.9 °F 66% 30.05 in 10.0 mi WSW 8.1 mph - N/A   Scattered Clouds
5:07 PM 30.2 °F 21.9 °F 21.2 °F 69% 30.02 in 10.0 mi WSW 9.2 mph - N/A   Mostly Cloudy
5:35 PM 30.2 °F 21.9 °F 21.2 °F 69% 30.03 in 10.0 mi WSW 9.2 mph 19.6 mph N/A   Scattered Clouds
5:48 PM 30.2 °F 20.2 °F 21.2 °F 69% 30.04 in 10.0 mi WSW 12.7 mph 18.4 mph N/A   Mostly Cloudy
5:53 PM 30.0 °F 22.4 °F 21.0 °F 69% 30.07 in 10.0 mi WSW 8.1 mph 18.4 mph N/A   Mostly Cloudy
6:19 PM 30.2 °F 19.8 °F 21.2 °F 69% 30.04 in 10.0 mi WSW 13.8 mph 21.9 mph N/A   Scattered Clouds
6:53 PM 30.9 °F 20.2 °F 21.9 °F 69% 30.08 in 10.0 mi West 15.0 mph - N/A   Clear
7:53 PM 27.0 °F 16.7 °F 19.0 °F 72% 30.11 in 10.0 mi WSW 11.5 mph - N/A   Clear
8:53 PM 27.0 °F 17.3 °F 18.0 °F 69% 30.13 in 10.0 mi WSW 10.4 mph - N/A   Clear
9:53 PM 25.0 °F 16.3 °F 17.1 °F 72% 30.15 in 10.0 mi WSW 8.1 mph - N/A   Clear
10:53 PM 24.1 °F 15.2 °F 17.1 °F 75% 30.17 in 9.0 mi SW 8.1 mph - N/A   Clear
11:53 PM 23.0 °F 15.8 °F 17.1 °F 78% 30.19 in 9.0 mi WSW 5.8 mph - N/A   Clear